Time[GMT],gps_lat[degrees_north](-3m),gps_lon[degrees_west](-3m),gps_2_lat[degrees_north](-3m),gps_2_lon[degrees_west](-3m)
2018-07-09 15:00,43.490116119,-67.879280090,43.50,-67.87
2018-07-09 16:00,43.490016937,-67.879417419,43.49,-67.88
2018-07-09 17:00,43.490249634,-67.879180908,43.49,-67.88
2018-07-09 18:00,43.490749359,-67.879264832,43.49,-67.88
2018-07-09 19:00,43.490898132,-67.879333496,43.49,-67.88
2018-07-09 20:00,43.491001129,-67.879600525,43.49,-67.88
2018-07-09 21:00,43.490982056,-67.879615784,43.49,-67.88
2018-07-09 22:00,43.490951538,-67.879631042,43.49,-67.88
2018-07-09 23:00,43.490951538,-67.879585266,43.49,-67.88
2018-07-10 00:00,43.490898132,-67.879463196,43.49,-67.88
2018-07-10 01:00,43.490615845,-67.879119873,43.49,-67.88
2018-07-10 02:00,43.490165710,-67.879364014,43.49,-67.88
2018-07-10 03:00,43.490032196,-67.879203796,43.49,-67.88
2018-07-10 04:00,43.490001678,-67.879035950,43.49,-67.88
2018-07-10 05:00,43.490215302,-67.878997803,43.49,-67.88
2018-07-10 06:00,43.490684509,-67.879180908,43.49,-67.88
2018-07-10 07:00,43.490715027,-67.879264832,43.49,-67.88
2018-07-10 08:00,43.490917206,-67.879249573,43.49,-67.88
2018-07-10 09:00,43.491065979,-67.879402161,43.49,-67.88
2018-07-10 10:00,43.490982056,-67.879486084,43.49,-67.88
2018-07-10 11:00,43.490932465,-67.879570007,43.49,-67.88
2018-07-10 12:00,43.490917206,-67.879585266,43.49,-67.88
2018-07-10 13:00,43.490699768,-67.879447937,43.49,-67.88
2018-07-10 14:00,43.490234375,-67.879348755,43.49,-67.88
2018-07-10 15:00,43.489933014,-67.879402161,43.49,-67.88
2018-07-10 16:00,43.489883423,-67.879585266,43.49,-67.88
2018-07-10 17:00,43.490299225,-67.879333496,43.49,-67.88
2018-07-10 18:00,43.490734100,-67.879417419,43.49,-67.88
2018-07-10 19:00,43.490966797,-67.879432678,43.49,-67.88
2018-07-10 20:00,43.491031647,-67.879463196,43.49,-67.88
2018-07-10 21:00,43.490951538,-67.879432678,43.49,-67.88
2018-07-10 22:00,43.491016388,-67.879516602,43.49,-67.88
2018-07-10 23:00,43.490932465,-67.879669189,43.49,-67.88
2018-07-11 00:00,43.490848541,-67.879669189,43.49,-67.88
2018-07-11 01:00,43.490581512,-67.879798889,43.49,-67.88
2018-07-11 02:00,43.490066528,-67.879783630,43.49,-67.88
2018-07-11 03:00,43.489917755,-67.879714966,43.49,-67.88
2018-07-11 04:00,43.489784241,-67.879783630,43.49,-67.88
2018-07-11 05:00,43.489700317,-67.879768372,43.49,-67.88
2018-07-11 06:00,43.489700317,-67.879646301,43.49,-67.88
2018-07-11 07:00,43.490283966,-67.880203247,43.49,-67.88
2018-07-11 08:00,43.490684509,-67.879814148,43.49,-67.88
2018-07-11 09:00,43.490882874,-67.879882812,43.49,-67.88
2018-07-11 10:00,43.490951538,-67.879882812,43.49,-67.88
2018-07-11 11:00,43.490867615,-67.879997253,,
2018-07-11 12:00,43.490749359,-67.880317688,43.49,-67.88
2018-07-11 13:00,43.490581512,-67.880218506,43.49,-67.88
2018-07-11 14:00,43.490234375,-67.880218506,43.49,-67.88
2018-07-11 15:00,43.489948273,-67.880180359,43.49,-67.88
2018-07-11 16:00,43.489883423,-67.880050659,43.49,-67.88
2018-07-11 17:00,43.489818573,-67.879981995,43.49,-67.88
2018-07-11 18:00,43.489784241,-67.880065918,43.49,-67.88
2018-07-11 19:00,43.490001678,-67.880020142,43.49,-67.88
2018-07-11 20:00,43.490367889,-67.880302429,43.49,-67.88
2018-07-11 21:00,43.490734100,-67.879966736,43.49,-67.88
2018-07-11 22:00,43.491001129,-67.879913330,43.49,-67.88
2018-07-11 23:00,43.490951538,-67.879882812,43.49,-67.88
2018-07-12 00:00,43.490833282,-67.879913330,43.49,-67.88
2018-07-12 01:00,43.490699768,-67.879867554,43.49,-67.88
2018-07-12 02:00,43.490215302,-67.879936218,43.49,-67.88
2018-07-12 03:00,43.489982605,-67.879966736,43.49,-67.88
2018-07-12 04:00,43.489898682,-67.879913330,43.49,-67.88
2018-07-12 05:00,43.489715576,-67.879814148,43.49,-67.88
2018-07-12 06:00,43.489868164,-67.879798889,43.49,-67.88
2018-07-12 07:00,43.489967346,-67.879783630,,
2018-07-12 08:00,43.489898682,-67.879600525,43.49,-67.88
2018-07-12 09:00,43.490501404,-67.879669189,43.49,-67.88
2018-07-12 10:00,43.490783691,-67.879699707,43.49,-67.88
2018-07-12 11:00,43.490898132,-67.879730225,43.49,-67.88
2018-07-12 12:00,43.490951538,-67.879646301,43.49,-67.88
2018-07-12 13:00,43.490734100,-67.879798889,,
2018-07-12 14:00,43.490600586,-67.879852295,43.49,-67.88
2018-07-12 15:00,43.490081787,-67.879981995,43.49,-67.88
2018-07-12 16:00,43.489849091,-67.879966736,43.49,-67.88
2018-07-12 17:00,43.489849091,-67.879882812,43.49,-67.88
2018-07-12 18:00,43.489700317,-67.879867554,43.49,-67.88
2018-07-12 19:00,43.490150452,-67.879913330,,
2018-07-12 20:00,43.490283966,-67.879585266,43.49,-67.88
2018-07-12 21:00,43.490600586,-67.879615784,43.49,-67.88
2018-07-12 22:00,43.490882874,-67.879501343,43.49,-67.88
2018-07-12 23:00,43.490966797,-67.879646301,43.49,-67.88
2018-07-13 00:00,43.490951538,-67.879684448,43.49,-67.88
2018-07-13 01:00,43.490848541,-67.879699707,43.49,-67.88
2018-07-13 02:00,43.490684509,-67.879814148,43.49,-67.88
2018-07-13 03:00,43.490135193,-67.879882812,43.49,-67.88
2018-07-13 04:00,43.490016937,-67.879783630,43.49,-67.88
2018-07-13 05:00,43.489933014,-67.879852295,43.49,-67.88
2018-07-13 06:00,43.489967346,-67.879867554,43.49,-67.88
2018-07-13 07:00,43.489784241,-67.879936218,43.49,-67.88
2018-07-13 08:00,43.489948273,-67.879966736,43.49,-67.88
2018-07-13 09:00,43.490501404,-67.879570007,43.49,-67.88
2018-07-13 10:00,43.490715027,-67.879615784,43.49,-67.88
2018-07-13 11:00,43.490932465,-67.879646301,43.49,-67.88
2018-07-13 12:00,43.491016388,-67.879646301,43.49,-67.88
2018-07-13 13:00,43.490882874,-67.879753113,43.49,-67.88
2018-07-13 14:00,43.490768433,-67.879768372,,
2018-07-13 15:00,43.490699768,-67.879814148,43.49,-67.88
2018-07-13 16:00,43.490184784,-67.879814148,,
2018-07-13 17:00,43.490081787,-67.879997253,43.49,-67.88
2018-07-13 18:00,43.490032196,-67.879837036,43.49,-67.88
2018-07-13 19:00,43.489917755,-67.879730225,43.49,-67.88
2018-07-13 20:00,43.490001678,-67.879814148,43.49,-67.88
2018-07-13 21:00,43.490299225,-67.879981995,43.49,-67.88
2018-07-13 22:00,43.490699768,-67.880035400,43.49,-67.88
2018-07-13 23:00,43.490818024,-67.879882812,43.49,-67.88
2018-07-14 00:00,43.490982056,-67.879837036,43.49,-67.88
2018-07-14 01:00,43.490917206,-67.879981995,,
2018-07-14 02:00,43.490833282,-67.880065918,,
2018-07-14 03:00,43.490734100,-67.880180359,43.49,-67.88
2018-07-14 04:00,43.490734100,-67.880363464,43.49,-67.88
2018-07-14 05:00,43.490150452,-67.880264282,43.49,-67.88
2018-07-14 06:00,43.489967346,-67.879882812,43.49,-67.88
2018-07-14 07:00,43.489948273,-67.879783630,43.49,-67.88
2018-07-14 08:00,43.489883423,-67.879646301,43.49,-67.88
2018-07-14 09:00,43.489933014,-67.879447937,,
2018-07-14 10:00,43.490398407,-67.879348755,,
2018-07-14 11:00,43.490650177,-67.879714966,43.49,-67.88
2018-07-14 12:00,43.490848541,-67.879814148,43.49,-67.88
2018-07-14 13:00,43.490882874,-67.879783630,43.49,-67.88
2018-07-14 14:00,43.490833282,-67.879913330,,
2018-07-14 15:00,43.490734100,-67.879981995,43.49,-67.88
2018-07-14 16:00,43.490550995,-67.880180359,43.49,-67.88
2018-07-14 17:00,43.490432739,-67.880401611,43.49,-67.88
2018-07-14 18:00,43.490234375,-67.880302429,43.49,-67.88
2018-07-14 19:00,43.490001678,-67.879837036,43.49,-67.88
2018-07-14 20:00,43.490001678,-67.879730225,43.49,-67.88
2018-07-14 21:00,43.490051270,-67.879463196,43.49,-67.88
2018-07-14 22:00,43.490200043,-67.879302979,43.49,-67.88
2018-07-14 23:00,43.490734100,-67.879280090,43.49,-67.88
2018-07-15 00:00,43.490798950,-67.879585266,43.49,-67.88
2018-07-15 01:00,43.490833282,-67.879768372,43.49,-67.88
2018-07-15 02:00,43.490867615,-67.879699707,43.49,-67.88
2018-07-15 03:00,43.490768433,-67.879798889,43.49,-67.88
2018-07-15 04:00,43.490734100,-67.880348206,43.49,-67.88
2018-07-15 05:00,43.490467072,-67.880134583,43.49,-67.88
2018-07-15 06:00,43.490116119,-67.880065918,43.49,-67.88
2018-07-15 07:00,43.489967346,-67.879951477,43.49,-67.88
2018-07-15 08:00,43.489868164,-67.879837036,43.49,-67.88
2018-07-15 09:00,43.489982605,-67.879936218,43.49,-67.88
2018-07-15 10:00,43.490116119,-67.879768372,43.49,-67.88
2018-07-15 11:00,43.490749359,-67.879348755,43.49,-67.88
2018-07-15 12:00,43.490848541,-67.879570007,43.49,-67.88
2018-07-15 13:00,43.490932465,-67.879600525,43.49,-67.88
2018-07-15 14:00,43.490917206,-67.879669189,43.49,-67.88
2018-07-15 15:00,43.490882874,-67.879753113,,
2018-07-15 16:00,43.490749359,-67.879753113,43.49,-67.88
2018-07-15 17:00,43.490634918,-67.879981995,43.49,-67.88
2018-07-15 18:00,43.490264893,-67.879913330,43.49,-67.88
2018-07-15 19:00,43.490100861,-67.879814148,43.49,-67.88
2018-07-15 20:00,43.489967346,-67.879631042,43.49,-67.88
2018-07-15 21:00,43.489917755,-67.879699707,43.49,-67.88
2018-07-15 22:00,43.489784241,-67.879768372,43.49,-67.88
2018-07-15 23:00,43.490283966,-67.879699707,43.49,-67.88
2018-07-16 00:00,43.490650177,-67.879615784,43.49,-67.88
2018-07-16 01:00,43.490768433,-67.879714966,43.49,-67.88
2018-07-16 02:00,43.490882874,-67.879753113,,
2018-07-16 03:00,43.490848541,-67.879768372,43.49,-67.88
2018-07-16 04:00,43.490734100,-67.879814148,43.49,-67.88
2018-07-16 05:00,43.490699768,-67.879814148,43.49,-67.88
2018-07-16 06:00,43.490383148,-67.879730225,43.49,-67.88
2018-07-16 07:00,43.490066528,-67.879631042,43.49,-67.88
2018-07-16 08:00,43.490016937,-67.879699707,43.49,-67.88
2018-07-16 09:00,43.489982605,-67.879585266,43.49,-67.88
2018-07-16 10:00,43.489917755,-67.879432678,43.49,-67.88
2018-07-16 11:00,43.489948273,-67.879585266,43.49,-67.88
2018-07-16 12:00,43.490531921,-67.879333496,43.49,-67.88
2018-07-16 13:00,43.490715027,-67.879714966,43.49,-67.88
2018-07-16 14:00,43.490783691,-67.879646301,43.49,-67.88
2018-07-16 15:00,43.490818024,-67.879783630,,
2018-07-16 16:00,43.490818024,-67.879852295,43.49,-67.88
2018-07-16 17:00,43.490715027,-67.879798889,43.49,-67.88
2018-07-16 18:00,43.490531921,-67.879898071,43.49,-67.88
2018-07-16 19:00,43.490234375,-67.879730225,43.49,-67.88
2018-07-16 20:00,43.490116119,-67.879684448,43.49,-67.88
2018-07-16 21:00,43.490001678,-67.879447937,43.49,-67.88
2018-07-16 22:00,43.489948273,-67.879570007,,
2018-07-16 23:00,43.490081787,-67.879684448,43.49,-67.88
2018-07-17 00:00,43.490264893,-67.879417419,43.49,-67.88
2018-07-17 01:00,43.490699768,-67.879585266,43.49,-67.88
2018-07-17 02:00,43.490798950,-67.879417419,43.49,-67.88
2018-07-17 03:00,43.490867615,-67.879615784,43.49,-67.88
2018-07-17 04:00,43.490818024,-67.879684448,43.49,-67.88
2018-07-17 05:00,43.490699768,-67.879783630,43.49,-67.88
2018-07-17 06:00,43.490581512,-67.879867554,43.49,-67.88
2018-07-17 07:00,43.490383148,-67.880035400,43.49,-67.88
2018-07-17 08:00,43.490066528,-67.879768372,43.49,-67.88
2018-07-17 09:00,43.489933014,-67.879753113,43.49,-67.88
2018-07-17 10:00,43.489933014,-67.879699707,,
2018-07-17 11:00,43.490016937,-67.879669189,43.49,-67.88
2018-07-17 12:00,43.490600586,-67.879516602,43.49,-67.88
2018-07-17 13:00,43.490783691,-67.879302979,43.49,-67.88
2018-07-17 14:00,43.490898132,-67.879318237,43.49,-67.88
2018-07-17 15:00,43.490966797,-67.879402161,43.49,-67.88
2018-07-17 16:00,43.491001129,-67.879547119,43.49,-67.88
2018-07-17 17:00,43.490917206,-67.879432678,,
2018-07-17 18:00,43.490798950,-67.879402161,43.49,-67.88
2018-07-17 19:00,43.490715027,-67.879417419,43.49,-67.88
2018-07-17 20:00,43.490501404,-67.879348755,43.49,-67.88
2018-07-17 21:00,43.490200043,-67.879318237,43.49,-67.88
2018-07-17 22:00,43.490215302,-67.879096985,43.49,-67.88
2018-07-17 23:00,43.490100861,-67.879051208,43.49,-67.88
2018-07-18 00:00,43.490135193,-67.879051208,43.49,-67.88
2018-07-18 01:00,43.490100861,-67.879096985,,
2018-07-18 02:00,43.490699768,-67.879219055,,
2018-07-18 03:00,43.490798950,-67.879570007,43.49,-67.88
2018-07-18 04:00,43.490882874,-67.879585266,43.49,-67.88
2018-07-18 05:00,43.490848541,-67.879615784,43.49,-67.88
2018-07-18 06:00,43.490768433,-67.879615784,,
2018-07-18 07:00,43.490699768,-67.879646301,43.49,-67.88
2018-07-18 08:00,43.490333557,-67.879898071,43.49,-67.88
2018-07-18 09:00,43.490150452,-67.879753113,43.49,-67.88
2018-07-18 10:00,43.490051270,-67.879714966,43.49,-67.88
2018-07-18 11:00,43.489982605,-67.879501343,,
2018-07-18 12:00,43.490066528,-67.879264832,43.49,-67.88
2018-07-18 13:00,43.490299225,-67.879081726,43.49,-67.88
2018-07-18 14:00,43.490451813,-67.879203796,43.49,-67.88
2018-07-18 15:00,43.490482330,-67.879219055,43.49,-67.88
2018-07-18 16:00,43.490615845,-67.879417419,43.49,-67.88
2018-07-18 17:00,43.490749359,-67.879631042,43.49,-67.88
2018-07-18 18:00,43.490699768,-67.879768372,43.49,-67.88
2018-07-18 19:00,43.490501404,-67.879783630,43.49,-67.88
2018-07-18 20:00,43.490367889,-67.879882812,43.49,-67.88
2018-07-18 21:00,43.490135193,-67.879852295,,
2018-07-18 22:00,43.490165710,-67.880020142,43.49,-67.88
2018-07-18 23:00,43.490100861,-67.879852295,43.49,-67.88
2018-07-19 00:00,43.490116119,-67.879669189,43.49,-67.88
2018-07-19 01:00,43.490215302,-67.879447937,,
2018-07-19 02:00,43.490249634,-67.879432678,43.49,-67.88
2018-07-19 03:00,43.490432739,-67.879402161,43.49,-67.88
2018-07-19 04:00,43.490650177,-67.879417419,43.49,-67.88
2018-07-19 05:00,43.490684509,-67.879600525,43.49,-67.88
2018-07-19 06:00,43.490600586,-67.879600525,,
2018-07-19 07:00,43.490467072,-67.879646301,,
2018-07-19 08:00,43.490184784,-67.879951477,43.49,-67.88
2018-07-19 09:00,43.490081787,-67.879951477,43.49,-67.88
2018-07-19 10:00,43.490016937,-67.879882812,,
2018-07-19 11:00,43.489883423,-67.879913330,,
2018-07-19 12:00,43.489948273,-67.879867554,43.49,-67.88
2018-07-19 13:00,43.489967346,-67.879951477,,
2018-07-19 14:00,43.490215302,-67.879951477,43.49,-67.88
2018-07-19 15:00,43.490699768,-67.879882812,43.49,-67.88
2018-07-19 16:00,43.490833282,-67.879730225,43.49,-67.88
2018-07-19 17:00,43.490951538,-67.879631042,43.49,-67.88
2018-07-19 18:00,43.490882874,-67.879669189,43.49,-67.88
2018-07-19 19:00,43.490749359,-67.879531860,43.49,-67.88
2018-07-19 20:00,43.490600586,-67.879501343,43.49,-67.88
2018-07-19 21:00,43.490383148,-67.879432678,,
2018-07-19 22:00,43.490165710,-67.879570007,43.49,-67.88
2018-07-19 23:00,43.490081787,-67.879531860,43.49,-67.88
2018-07-20 00:00,43.489982605,-67.879463196,43.49,-67.88
2018-07-20 01:00,43.489883423,-67.879600525,,
2018-07-20 02:00,43.490081787,-67.879501343,43.49,-67.88
2018-07-20 03:00,43.490150452,-67.879684448,43.49,-67.88
2018-07-20 04:00,43.490581512,-67.879699707,43.49,-67.88
2018-07-20 05:00,43.490715027,-67.879814148,43.49,-67.88
2018-07-20 06:00,43.490833282,-67.879936218,43.49,-67.88
2018-07-20 07:00,43.490783691,-67.879898071,43.49,-67.88
2018-07-20 08:00,43.490715027,-67.879814148,,
2018-07-20 09:00,43.490650177,-67.879913330,,
2018-07-20 10:00,43.490600586,-67.880119324,,
2018-07-20 11:00,43.490333557,-67.879783630,,
2018-07-20 12:00,43.490234375,-67.879699707,43.49,-67.88
2018-07-20 13:00,43.490184784,-67.879417419,43.49,-67.88
2018-07-20 14:00,43.490264893,-67.879203796,43.49,-67.88
2018-07-20 15:00,43.490184784,-67.879249573,43.49,-67.88
2018-07-20 16:00,43.490283966,-67.879234314,43.49,-67.88
2018-07-20 17:00,43.490482330,-67.879402161,43.49,-67.88
2018-07-20 18:00,43.490650177,-67.879753113,43.49,-67.88
2018-07-20 19:00,43.490749359,-67.879798889,43.49,-67.88
2018-07-20 20:00,43.490665436,-67.879936218,43.49,-67.88
2018-07-20 21:00,43.490566254,-67.880065918,,
2018-07-20 22:00,43.490581512,-67.880149841,43.49,-67.88
2018-07-20 23:00,43.490333557,-67.880096436,43.49,-67.88
2018-07-21 00:00,43.490150452,-67.879898071,43.49,-67.88
2018-07-21 01:00,43.490150452,-67.879867554,43.49,-67.88
2018-07-21 02:00,43.490135193,-67.879783630,,
2018-07-21 03:00,43.490249634,-67.879699707,,
2018-07-21 04:00,43.490634918,-67.880203247,43.49,-67.88
2018-07-21 05:00,43.490566254,-67.879364014,43.49,-67.88
2018-07-21 06:00,43.490684509,-67.879600525,43.49,-67.88
2018-07-21 07:00,43.490699768,-67.879615784,43.49,-67.88
2018-07-21 08:00,43.490684509,-67.879753113,43.49,-67.88
2018-07-21 09:00,43.490600586,-67.879837036,,
2018-07-21 10:00,43.490501404,-67.879867554,43.49,-67.88
2018-07-21 11:00,43.490318298,-67.879898071,43.49,-67.88
2018-07-21 12:00,43.490165710,-67.879852295,43.49,-67.88
2018-07-21 13:00,43.490135193,-67.879798889,43.49,-67.88
2018-07-21 14:00,43.490081787,-67.879768372,43.49,-67.88
2018-07-21 15:00,43.490116119,-67.879646301,43.49,-67.88
2018-07-21 16:00,43.490200043,-67.879646301,43.49,-67.88
2018-07-21 17:00,43.490482330,-67.879714966,,
2018-07-21 18:00,43.490684509,-67.879814148,43.49,-67.88
2018-07-21 19:00,43.490798950,-67.879867554,43.49,-67.88
2018-07-21 20:00,43.490833282,-67.879699707,43.49,-67.88
2018-07-21 21:00,43.490768433,-67.879669189,43.49,-67.88
2018-07-21 22:00,43.490699768,-67.879753113,43.49,-67.88
2018-07-21 23:00,43.490566254,-67.879798889,43.49,-67.88
2018-07-22 00:00,43.490264893,-67.879684448,43.49,-67.88
2018-07-22 01:00,43.490215302,-67.879531860,43.49,-67.88
2018-07-22 02:00,43.490116119,-67.879402161,,
2018-07-22 03:00,43.490100861,-67.879417419,43.49,-67.88
2018-07-22 04:00,43.490100861,-67.879531860,43.49,-67.88
2018-07-22 05:00,43.490116119,-67.879402161,43.49,-67.88
2018-07-22 06:00,43.490348816,-67.879615784,,
2018-07-22 07:00,43.490665436,-67.880081177,43.49,-67.88
2018-07-22 08:00,43.490833282,-67.880081177,43.49,-67.88
2018-07-22 09:00,43.490783691,-67.880081177,,
2018-07-22 10:00,43.490734100,-67.880180359,,
2018-07-22 11:00,,,,
2018-07-22 12:00,43.490699768,-67.880218506,43.49,-67.88
2018-07-22 13:00,43.490398407,-67.880065918,43.49,-67.88
2018-07-22 14:00,43.490283966,-67.879699707,43.49,-67.88
2018-07-22 15:00,43.490135193,-67.879348755,43.49,-67.88
2018-07-22 16:00,43.490184784,-67.879234314,43.49,-67.88
2018-07-22 17:00,43.490264893,-67.879302979,,
2018-07-22 18:00,43.490383148,-67.879219055,,
2018-07-22 19:00,43.490665436,-67.879798889,43.49,-67.88
2018-07-22 20:00,43.490798950,-67.879882812,43.49,-67.88
2018-07-22 21:00,43.490848541,-67.879951477,,
2018-07-22 22:00,43.490867615,-67.879936218,,
2018-07-22 23:00,43.490867615,-67.879951477,,
2018-07-23 00:00,43.490783691,-67.879898071,43.49,-67.88
2018-07-23 01:00,43.490798950,-67.879798889,43.49,-67.88
2018-07-23 02:00,43.490715027,-67.879646301,,
2018-07-23 03:00,43.490184784,-67.879302979,43.49,-67.88
2018-07-23 04:00,43.490165710,-67.879364014,43.49,-67.88
2018-07-23 05:00,43.490184784,-67.879364014,43.49,-67.88
2018-07-23 06:00,43.490333557,-67.879280090,43.49,-67.88
2018-07-23 07:00,43.490715027,-67.879753113,43.49,-67.88
2018-07-23 08:00,43.490867615,-67.879768372,43.49,-67.88
2018-07-23 09:00,43.490898132,-67.879753113,43.49,-67.88
2018-07-23 10:00,43.490898132,-67.879783630,43.49,-67.88
2018-07-23 11:00,43.490848541,-67.879768372,,
2018-07-23 12:00,43.490783691,-67.879730225,43.49,-67.88
2018-07-23 13:00,43.490665436,-67.879768372,,
2018-07-23 14:00,43.490432739,-67.879669189,43.49,-67.88
2018-07-23 15:00,43.490100861,-67.879486084,43.49,-67.88
2018-07-23 16:00,43.490135193,-67.879516602,43.49,-67.88
2018-07-23 17:00,43.490081787,-67.879669189,,
2018-07-23 18:00,43.490550995,-67.879852295,,
2018-07-23 19:00,43.490650177,-67.879867554,43.49,-67.88
2018-07-23 20:00,43.490783691,-67.879852295,43.49,-67.88
2018-07-23 21:00,43.490898132,-67.879936218,,
2018-07-23 22:00,43.490898132,-67.879852295,43.49,-67.88
2018-07-23 23:00,43.490867615,-67.879798889,,
2018-07-24 00:00,43.490833282,-67.879852295,43.49,-67.88
2018-07-24 01:00,43.490734100,-67.879753113,43.49,-67.88
2018-07-24 02:00,43.490432739,-67.879730225,43.49,-67.88
2018-07-24 03:00,43.490200043,-67.879631042,43.49,-67.88
2018-07-24 04:00,43.490051270,-67.879600525,43.49,-67.88
2018-07-24 05:00,43.490001678,-67.879531860,,
2018-07-24 06:00,43.490066528,-67.879730225,,
2018-07-24 07:00,43.490333557,-67.879432678,,
2018-07-24 08:00,43.490581512,-67.879600525,43.49,-67.88
2018-07-24 09:00,43.490715027,-67.879753113,43.49,-67.88
2018-07-24 10:00,43.490833282,-67.879814148,43.49,-67.88
2018-07-24 11:00,43.490798950,-67.879882812,,
2018-07-24 12:00,43.490715027,-67.879898071,43.49,-67.88
2018-07-24 13:00,43.490715027,-67.879981995,,
2018-07-24 14:00,43.490581512,-67.879852295,43.49,-67.88
2018-07-24 15:00,43.490451813,-67.879753113,43.49,-67.88
2018-07-24 16:00,43.490264893,-67.879684448,43.49,-67.88
2018-07-24 17:00,43.490165710,-67.879570007,,
2018-07-24 18:00,43.490249634,-67.879699707,43.49,-67.88
2018-07-24 19:00,43.490550995,-67.879547119,43.49,-67.88
2018-07-24 20:00,43.490734100,-67.879730225,43.49,-67.88
2018-07-24 21:00,43.490783691,-67.879646301,43.49,-67.88
2018-07-24 22:00,43.490783691,-67.879699707,43.49,-67.88
2018-07-24 23:00,43.490768433,-67.879783630,43.49,-67.88
2018-07-25 00:00,43.490684509,-67.879852295,43.49,-67.88
2018-07-25 01:00,43.490715027,-67.879814148,,
2018-07-25 02:00,43.490581512,-67.879867554,,
2018-07-25 03:00,43.490432739,-67.879684448,,
2018-07-25 04:00,43.490264893,-67.879615784,43.49,-67.88
2018-07-25 05:00,43.490184784,-67.879585266,,
2018-07-25 06:00,43.490234375,-67.879753113,43.49,-67.88
2018-07-25 07:00,43.490451813,-67.879516602,43.49,-67.88
2018-07-25 08:00,43.490715027,-67.879669189,43.49,-67.88
2018-07-25 09:00,43.490749359,-67.879600525,43.49,-67.88
2018-07-25 10:00,43.490783691,-67.879600525,,
2018-07-25 11:00,43.490798950,-67.879714966,,
2018-07-25 12:00,43.490783691,-67.879783630,43.49,-67.88
2018-07-25 13:00,43.490699768,-67.879814148,,
2018-07-25 14:00,43.490699768,-67.879852295,,
2018-07-25 15:00,43.490581512,-67.879753113,,
2018-07-25 16:00,43.490566254,-67.879768372,43.49,-67.88
2018-07-25 17:00,43.490299225,-67.879570007,43.49,-67.88
2018-07-25 18:00,43.490398407,-67.879501343,43.49,-67.88
2018-07-25 19:00,43.490715027,-67.879646301,,
2018-07-25 20:00,43.490684509,-67.879615784,43.49,-67.88
2018-07-25 21:00,43.490848541,-67.879646301,,
2018-07-25 22:00,43.490818024,-67.879646301,43.49,-67.88
2018-07-25 23:00,43.490833282,-67.879730225,43.49,-67.88
2018-07-26 00:00,43.490867615,-67.879814148,43.49,-67.88
2018-07-26 01:00,43.490783691,-67.879867554,43.49,-67.88
2018-07-26 02:00,43.490798950,-67.879867554,43.49,-67.88
2018-07-26 03:00,43.490768433,-67.879966736,,
2018-07-26 04:00,43.490634918,-67.879570007,43.49,-67.88
2018-07-26 05:00,43.490516663,-67.879501343,43.49,-67.88
2018-07-26 06:00,43.490482330,-67.879302979,43.49,-67.88
2018-07-26 07:00,43.490550995,-67.879280090,43.49,-67.88
2018-07-26 08:00,43.490634918,-67.879302979,43.49,-67.88
2018-07-26 09:00,43.490600586,-67.879180908,43.49,-67.88
2018-07-26 10:00,43.490783691,-67.879447937,43.49,-67.88
2018-07-26 11:00,43.490867615,-67.879631042,43.49,-67.88
2018-07-26 12:00,43.490932465,-67.879684448,43.49,-67.88
2018-07-26 13:00,43.490917206,-67.879646301,,
2018-07-26 14:00,43.490917206,-67.879669189,,
2018-07-26 15:00,43.490867615,-67.879684448,,
2018-07-26 16:00,43.490848541,-67.879615784,43.49,-67.88
2018-07-26 17:00,43.490734100,-67.879447937,,
2018-07-26 18:00,43.490684509,-67.879219055,43.49,-67.88
2018-07-26 19:00,43.490550995,-67.879135132,,
2018-07-26 20:00,43.490600586,-67.879203796,43.49,-67.88
2018-07-26 21:00,43.490531921,-67.879180908,43.49,-67.88
2018-07-26 22:00,43.490783691,-67.879516602,43.49,-67.88
2018-07-26 23:00,43.490798950,-67.879669189,43.49,-67.88
2018-07-27 00:00,43.490818024,-67.879684448,43.49,-67.88
2018-07-27 01:00,43.490783691,-67.879768372,43.49,-67.88
2018-07-27 02:00,43.490768433,-67.879699707,43.49,-67.88
2018-07-27 03:00,43.490715027,-67.879753113,43.49,-67.88
2018-07-27 04:00,43.490600586,-67.879913330,43.49,-67.88
2018-07-27 05:00,43.490451813,-67.879753113,,
2018-07-27 06:00,43.490249634,-67.879631042,43.49,-67.88
2018-07-27 07:00,43.490516663,-67.879432678,43.49,-67.88
2018-07-27 08:00,43.490566254,-67.879318237,43.49,-67.88
2018-07-27 09:00,43.490550995,-67.879203796,,